Regional Weather Roundup
Issued by NWS

Home | Current Version | Previous Version | Text Only | Print | Product List | Glossary Off
Versions: 1 2 3 4 5 6 7 8 9 10 11 12 13 14 15 16 17 18 19 20 21 22 23 24 25 26 27 28 29 30 31 32 33 34 35 36 37 38 39 40 41 42 43 44 45 46 47 48 49 50

000
ASUS45 KPSR 242310
RWRAZ

ARIZONA REGIONAL HOURLY WEATHER ROUNDUP
NATIONAL WEATHER SERVICE PHOENIX AZ
400 PM MST THU JUL 24 2014

NOTE: FAIR INDICATES FEW OR NO CLOUDS BELOW 12,000 FEET WITH NO
SIGNIFICANT WEATHER AND/OR OBSTRUCTIONS TO VISIBILITY.

AZZ001>003-036-250000-
NORTHWEST ARIZONA

CITY           SKY/WX    TMP DP  RH WIND       PRES   REMARKS
BULLHEAD CITY  SUNNY    113  46  11 SW9       29.66F HX 108
KINGMAN        MOSUNNY  103  45  14 SW14G22   29.93F
$$

AZZ004>008-015-016-018-250000-
NORTH CENTRAL ARIZONA

CITY           SKY/WX    TMP DP  RH WIND       PRES   REMARKS
GRAND CANYON   CLOUDY    83  43  24 S9        30.25F
WILLIAMS       CLOUDY    68  57  68 W13G23    30.37R
PRESCOTT       CLOUDY    83  54  36 NW17      30.13F
FLAGSTAFF      CLOUDY    74  52  46 N7        30.31S
PAYSON         MOSUNNY   95  37  13 S9G20     30.14F
PAGE           MOSUNNY   99  42  14 N6        30.00F
$$

AZZ009>014-017-250000-
NORTHEAST ARIZONA

CITY           SKY/WX    TMP DP  RH WIND       PRES   REMARKS
WINSLOW        PTSUNNY   94  42  16 S6        30.09F
SAINT JOHNS    MOSUNNY   92  42  17 SE13      30.15F
WINDOW ROCK    PTSUNNY   86  39  19 S7        30.27F
SHOW LOW       MOSUNNY   88  37  16 S12G20    30.26F
$$

AZZ023-250000-
GREATER PHOENIX AREA

CITY           SKY/WX    TMP DP  RH WIND       PRES   REMARKS
PHOENIX        MOSUNNY  112  41   9 SE6G24    29.71F HX 106
BUCKEYE          N/A    111  48  12 E8        29.71F HX 107
GLENDALE       MOSUNNY  113  43   9 VRB6      29.73F HX 107
LUKE AFB       NOT AVBL
DEER VALLEY    SUNNY    110  40   9 SE7       29.75F HX 104
SCOTTSDALE     SUNNY    110  44  11 SW6G17    29.76F HX 105
MESA-FALCON    MOSUNNY  113  39   8 S12       29.74F HX 106
MESA-GATEWAY   PTSUNNY  111  39   8 SE10      29.77F HX 105
CHANDLER       MOSUNNY  111  45  10 MISG        N/A  HX 106
$$

AZZ027-028-250000-
SOUTHWEST MARICOPA COUNTY AND PINAL COUNTY

CITY           SKY/WX    TMP DP  RH WIND       PRES   REMARKS
CASA GRANDE    SUNNY    111  46  11 SE7       29.77F HX 107
GILA BEND      MOCLDY   108  50  14 SW8G21    29.72S HX 104
$$

AZZ503-504-507>509-250000-
SOUTHEAST ARIZONA

CITY           SKY/WX    TMP DP  RH WIND       PRES   REMARKS
TUCSON         SUNNY    107  38   9 S9        29.88F HX 101
DAVIS-MONTHAN  SUNNY    105  41  11 SE8G17    29.87F HX 100
RYAN FIELD       N/A    106  43  11 SE14      29.86F HX 101
NOGALES        MOSUNNY   98  48  18 S12       29.99F
SIERRA VISTA   MOSUNNY   93  41  16 E8        30.10F
DOUGLAS        SUNNY     96  44  16 SE7       30.04F
SAFFORD        SUNNY    102  40  12 S12G31    29.95F
$$

AZZ020-021-025-026-031-250000-
SOUTHWEST ARIZONA

CITY           SKY/WX    TMP DP  RH WIND       PRES   REMARKS
YUMA           PTSUNNY  116  39   7 W9        29.65F HX 109
$$

CAZ031-033-041-043-047-048-061-250000-
SOUTHERN CALIFORNIA

CITY           SKY/WX    TMP DP  RH WIND       PRES   REMARKS
DOWNTOWN L.A.  SUNNY     86  59  39 VRB6      29.77F
L.A. AIRPORT   MOSUNNY   79  62  56 W14       29.79F
SAN DIEGO      MOSUNNY   80  63  55 W9        29.79F
BURBANK        SUNNY     97  51  21 S13       29.77F
ONTARIO        MOSUNNY  104  47  14 W12       29.77F HX 100
RIVERSIDE      SUNNY    102  49  16 W13       29.76F
PALM SPRINGS   SUNNY    115  44   9 SE12      29.67F HX 109
EL CENTRO NAS  PTSUNNY  116  45   9 SE12      29.61F HX 110
IMPERIAL       MOSUNNY  115  45   9 E12       29.61F HX 110
BLYTHE         MOSUNNY  113  44  10 SW5       29.65F HX 108
NEEDLES        SUNNY    117  41   8 S12G22    29.68F HX 110
$$

NVZ020-UTZ003-250000-
SOUTHERN NEVADA-UTAH

CITY           SKY/WX    TMP DP  RH WIND       PRES   REMARKS
LAS VEGAS      MOSUNNY  111  33   7 SW17G25   29.74F HX 103
SALT LAKE CITY MOSUNNY   93  34  12 NW12G21   29.98F
$$

NMZ009-TXZ055-250000-
NEW MEXICO-WEST TEXAS

CITY           SKY/WX    TMP DP  RH WIND       PRES   REMARKS
ALBUQUERQUE    MOSUNNY   91  38  15 SW10      30.19F
EL PASO        MOSUNNY   97  49  19 S8        30.07F
$$


........................KEY........................
SKY/WX - SKY CONDITION/WEATHER
TMP    - TEMPERATURE IN FAHRENHEIT
DP     - DEW POINT IN FAHRENHEIT
RH     - RELATIVE HUMIDITY IN PERCENT
WIND   - DIRECTION AND SPEED IN MILES PER HOUR (MPH)
VRB    - VARIABLE WIND DIRECTION
PRES   - MEAN SEA LEVEL PRESSURE IN INCHES OF MERCURY
         F - FALLING PRESSURE   R - RISING PRESSURE
         S - STEADY PRESSURE
VSB    - VISIBILITY IN MILES
HX     - HEAT INDEX IN FAHRENHEIT
WCI    - WIND CHILL INDEX IN FAHRENHEIT
TC     - TEMPERATURE IN CELSIUS WHICH IS ALSO KNOWN AS
         TEMPERATURE IN CENTIGRADE
AFB    - AIR FORCE BASE
         LUKE AFB IS LUKE AIR FORCE BASE
         DAVIS-MONTHAN IS DAVIS-MONTHAN AIR FORCE BASE
NAS    - NAVAL AIR STATION
         EL CENTRO NAS IS EL CENTRO NAVAL AIR STATION
N/A    - NOT AVAILABLE



USA.gov is the U.S. government's official web portal to all federal, state and local government web resources and services.